STARLINK-30251 (57532 NORAD) Tracking and Keplerian Element Data

This shows tracking and keplerian element data for the satellite.

Feedback or suggestion? Click here.




ElementValue
Catalog57532
NameSTARLINK-30251
Epoch Orbit413
Epoch Day239.16667824
Epoch Year2023
RAAN359.5903
Inclination42.9995
Eccentricity0.0001606
Argument of Perigee267.7461
Mean Anonmoly90.9996
Mean Motion15.54791999
Decay Rate-0.0161879
L11 57532U 23115M 23239.16667824 -.01618790 00000+0 -26336-1 0 9997
L22 57532 42.9995 359.5903 0001606 267.7461 90.9996 15.54791999 4131



Live tracking and technical data element details for STARLINK-30251 (NORAD 57532). STARLINK-30251 can be tracked NOW for your location showing map with azimuth and elevation plus other details from your city location.







IsCatalogInMostPopularTable: catalog: 57532, numindb: 5
Update: records affected: 1



GetName: 57532 STARLINK-30251

Hit Count: updated at: Tue, 26 Sep 2023 11:50:03 GMT